SHT13E EGNT-EGLL

Flight info

Callsign SHT13E
Flight time 0h 50m
Altitude 31000
Route DCT GIRLI P18 GASKO P16 RIBEL UP16 CROFT DCT NUGRA NUGRA2H
Aircraft A320/M-SDE3FGHIJ1KRWXY/SB1

Departure

Time 2026-05-04 10:09
Airport Newcastle International Airport (EGNT)

Arrival

Time 2026-05-04 10:59
Airport London Heathrow Airport (EGLL)
Time Latitude Longitude Altitude Speed Heading
2026-05-04 09:42 55.03671 -1.70845 268 ft 0 kts
2026-05-04 10:02 55.03602 -1.70815 267 ft 4 kts 288°
2026-05-04 10:04 55.03598 -1.70790 267 ft 0 kts 278°
2026-05-04 10:05 55.03602 -1.70798 267 ft 1 kts 312°
2026-05-04 10:05 55.03606 -1.70794 267 ft 1 kts
2026-05-04 10:05 55.03607 -1.70784 267 ft 1 kts 71°
2026-05-04 10:06 55.03602 -1.70761 267 ft 3 kts 110°
2026-05-04 10:06 55.03595 -1.70707 267 ft 6 kts 96°
2026-05-04 10:06 55.03577 -1.70649 267 ft 6 kts 157°
2026-05-04 10:08 55.03459 -1.70644 268 ft 2 kts 180°
2026-05-04 10:08 55.03435 -1.70644 268 ft 5 kts 180°
2026-05-04 10:08 55.03395 -1.70643 268 ft 7 kts 175°
2026-05-04 10:08 55.03375 -1.70563 267 ft 12 kts 73°
2026-05-04 10:09 55.03475 -1.70175 264 ft 71 kts 66°
2026-05-04 10:09 55.03776 -1.69042 253 ft 132 kts 65°
2026-05-04 10:09 55.04223 -1.67368 450 ft 158 kts 65°
2026-05-04 10:09 55.04681 -1.65658 1144 ft 156 kts 65°
2026-05-04 10:10 55.05151 -1.63905 1639 ft 167 kts 66°
2026-05-04 10:10 55.05666 -1.61965 2041 ft 186 kts 67°
2026-05-04 10:10 55.06233 -1.59809 2420 ft 205 kts 66°
2026-05-04 10:10 55.06582 -1.57338 2873 ft 217 kts 97°
2026-05-04 10:11 55.06009 -1.54919 3475 ft 222 kts 131°
2026-05-04 10:11 55.04744 -1.53430 4180 ft 221 kts 166°
2026-05-04 10:11 55.03231 -1.53150 5006 ft 219 kts 181°
2026-05-04 10:11 55.01691 -1.53151 5749 ft 225 kts 183°
2026-05-04 10:12 55.00097 -1.53190 6454 ft 234 kts 182°
2026-05-04 10:12 54.98433 -1.53320 7080 ft 247 kts 191°
2026-05-04 10:12 54.96708 -1.54163 7511 ft 268 kts 205°
2026-05-04 10:12 54.95423 -1.55360 8039 ft 275 kts 213°
2026-05-04 10:13 54.95177 -1.55629 8184 ft 276 kts 214°
2026-05-04 10:13 54.93528 -1.57402 9044 ft 281 kts 213°
2026-05-04 10:13 54.91829 -1.59163 9933 ft 287 kts 212°
2026-05-04 10:13 54.90074 -1.60958 10476 ft 304 kts 212°
2026-05-04 10:14 54.88187 -1.62887 10912 ft 321 kts 212°
2026-05-04 10:14 54.86242 -1.64874 11673 ft 326 kts 212°
2026-05-04 10:16 54.71983 -1.79327 17128 ft 355 kts 206°
2026-05-04 10:16 54.69640 -1.80765 17834 ft 361 kts 194°
2026-05-04 10:16 54.67162 -1.81586 18532 ft 365 kts 191°
2026-05-04 10:16 54.64643 -1.82371 19178 ft 370 kts 191°
2026-05-04 10:17 54.62095 -1.83173 19837 ft 374 kts 191°
2026-05-04 10:17 54.59518 -1.83991 20520 ft 379 kts 191°
2026-05-04 10:19 54.40593 -1.89938 24892 ft 411 kts 189°
2026-05-04 10:19 54.37758 -1.90823 25442 ft 416 kts 189°
2026-05-04 10:19 54.34894 -1.91717 25993 ft 420 kts 189°
2026-05-04 10:19 54.32005 -1.92619 26521 ft 425 kts 189°
2026-05-04 10:20 54.29079 -1.93533 27052 ft 430 kts 189°
2026-05-04 10:20 54.26133 -1.94572 27578 ft 435 kts 194°
2026-05-04 10:20 54.23281 -1.96359 28087 ft 441 kts 205°
2026-05-04 10:20 54.20611 -1.98993 28590 ft 446 kts 215°
2026-05-04 10:21 54.18214 -2.02399 29057 ft 451 kts 223°
2026-05-04 10:21 54.15922 -2.06100 29519 ft 456 kts 223°
2026-05-04 10:21 54.13607 -2.09825 29954 ft 460 kts 223°
2026-05-04 10:21 54.11265 -2.13580 30333 ft 464 kts 223°
2026-05-04 10:22 54.06505 -2.21172 30994 ft 472 kts 223°
2026-05-04 10:22 54.04106 -2.24971 31071 ft 466 kts 221°
2026-05-04 10:22 54.01579 -2.28251 31082 ft 449 kts 211°
2026-05-04 10:23 53.98867 -2.30699 31076 ft 437 kts 200°
2026-05-04 10:25 53.74319 -2.46487 31081 ft 487 kts 199°
2026-05-04 10:25 53.67978 -2.50473 31074 ft 483 kts 195°
2026-05-04 10:26 53.62489 -2.52195 31081 ft 476 kts 180°
2026-05-04 10:26 53.55977 -2.51233 31079 ft 467 kts 163°
2026-05-04 10:27 53.49650 -2.48683 31074 ft 467 kts 163°
2026-05-04 10:27 53.43356 -2.46192 31081 ft 468 kts 163°
2026-05-04 10:28 53.37017 -2.43695 31082 ft 468 kts 163°
2026-05-04 10:28 53.30673 -2.41205 31081 ft 468 kts 163°
2026-05-04 10:29 53.24333 -2.38722 31077 ft 468 kts 163°
2026-05-04 10:29 53.18004 -2.36239 31091 ft 467 kts 163°
2026-05-04 10:30 53.11670 -2.33762 31085 ft 467 kts 163°
2026-05-04 10:30 53.05358 -2.31231 31077 ft 465 kts 159°
2026-05-04 10:31 52.99550 -2.26808 31073 ft 456 kts 143°
2026-05-04 10:32 52.80845 -2.07213 31075 ft 455 kts 144°
2026-05-04 10:33 52.75485 -2.01651 31067 ft 455 kts 144°
2026-05-04 10:33 52.72816 -1.98887 30921 ft 448 kts 147°
2026-05-04 10:33 52.70197 -1.96181 30453 ft 441 kts 147°
2026-05-04 10:34 52.67611 -1.93514 29824 ft 437 kts 147°
2026-05-04 10:34 52.65047 -1.90873 29242 ft 431 kts 147°
2026-05-04 10:34 52.62525 -1.88276 28688 ft 425 kts 147°
2026-05-04 10:34 52.60034 -1.85706 28133 ft 419 kts 148°
2026-05-04 10:35 52.57577 -1.83174 27588 ft 414 kts 148°
2026-05-04 10:35 52.55140 -1.80670 27044 ft 410 kts 148°
2026-05-04 10:35 52.52734 -1.78208 26516 ft 406 kts 148°
2026-05-04 10:35 52.50343 -1.75765 25996 ft 403 kts 149°
2026-05-04 10:36 52.47976 -1.73348 25490 ft 399 kts 149°
2026-05-04 10:36 52.45623 -1.70945 24989 ft 397 kts 149°
2026-05-04 10:36 52.43291 -1.68560 24511 ft 394 kts 150°
2026-05-04 10:36 52.40969 -1.66191 24035 ft 392 kts 150°
2026-05-04 10:37 52.38661 -1.63841 23576 ft 390 kts 150°
2026-05-04 10:37 52.36358 -1.61503 23078 ft 387 kts 150°
2026-05-04 10:37 52.34079 -1.59190 22625 ft 384 kts 150°
2026-05-04 10:37 52.31821 -1.56899 22175 ft 381 kts 150°
2026-05-04 10:39 52.18956 -1.42828 19527 ft 368 kts 141°
2026-05-04 10:39 52.17024 -1.40115 19154 ft 366 kts 141°
2026-05-04 10:39 52.15097 -1.37424 18783 ft 363 kts 141°
2026-05-04 10:40 52.13182 -1.34759 18410 ft 361 kts 141°
2026-05-04 10:40 52.11278 -1.32118 18018 ft 359 kts 141°
2026-05-04 10:40 52.09383 -1.29490 17652 ft 357 kts 141°
2026-05-04 10:40 52.07495 -1.26873 17287 ft 355 kts 141°
2026-05-04 10:41 52.05621 -1.24280 16924 ft 354 kts 141°
2026-05-04 10:41 52.03752 -1.21692 16563 ft 352 kts 141°
2026-05-04 10:41 52.01898 -1.19126 16205 ft 349 kts 141°
2026-05-04 10:41 52.00055 -1.16576 15853 ft 347 kts 141°
2026-05-04 10:42 51.98217 -1.14036 15504 ft 346 kts 141°
2026-05-04 10:42 51.96392 -1.11515 15150 ft 344 kts 141°
2026-05-04 10:42 51.94571 -1.09003 14581 ft 347 kts 141°
2026-05-04 10:42 51.92762 -1.06511 13983 ft 338 kts 141°
2026-05-04 10:43 51.91040 -1.04132 13854 ft 312 kts 141°
2026-05-04 10:44 51.82688 -0.87699 11308 ft 262 kts 118°
2026-05-04 10:45 51.81886 -0.85067 10960 ft 261 kts 118°
2026-05-04 10:45 51.81079 -0.82429 10622 ft 262 kts 118°
2026-05-04 10:45 51.80269 -0.79786 10322 ft 262 kts 118°
2026-05-04 10:45 51.79459 -0.77149 9945 ft 261 kts 118°
2026-05-04 10:46 51.78655 -0.74536 9580 ft 258 kts 118°
2026-05-04 10:46 51.77859 -0.71961 9236 ft 255 kts 118°
2026-05-04 10:46 51.77072 -0.69417 8916 ft 252 kts 118°
2026-05-04 10:46 51.76288 -0.66877 8580 ft 253 kts 118°
2026-05-04 10:47 51.75505 -0.64343 8248 ft 253 kts 118°
2026-05-04 10:47 51.74718 -0.61795 7915 ft 254 kts 118°
2026-05-04 10:47 51.73938 -0.59261 7635 ft 252 kts 117°
2026-05-04 10:47 51.73161 -0.56743 7382 ft 249 kts 118°
2026-05-04 10:49 51.66694 -0.41839 7056 ft 225 kts 127°
2026-05-04 10:49 51.65774 -0.39806 7057 ft 225 kts 127°
2026-05-04 10:50 51.64851 -0.37772 7057 ft 225 kts 127°
2026-05-04 10:51 51.58394 -0.23632 6471 ft 222 kts 127°
2026-05-04 10:52 51.57489 -0.21665 6215 ft 220 kts 127°
2026-05-04 10:52 51.56597 -0.19724 6116 ft 210 kts 127°
2026-05-04 10:52 51.55748 -0.17869 6028 ft 204 kts 127°
2026-05-04 10:54 51.49178 -0.09216 3748 ft 189 kts 210°
2026-05-04 10:54 51.48303 -0.10747 3464 ft 189 kts 246°
2026-05-04 10:56 51.47802 -0.24233 2415 ft 173 kts 271°
2026-05-04 10:56 51.47799 -0.26160 2234 ft 173 kts 271°
2026-05-04 10:56 51.47797 -0.28092 2018 ft 174 kts 271°
2026-05-04 10:57 51.47794 -0.30023 1788 ft 172 kts 272°
2026-05-04 10:57 51.47791 -0.31936 1558 ft 171 kts 271°
2026-05-04 10:57 51.47787 -0.33799 1346 ft 160 kts 271°
2026-05-04 10:57 51.47783 -0.35514 1121 ft 149 kts 271°
2026-05-04 10:58 51.47780 -0.37143 916 ft 144 kts 271°
2026-05-04 10:58 51.47778 -0.38736 715 ft 143 kts 272°
2026-05-04 10:58 51.47773 -0.40329 534 ft 142 kts 274°
2026-05-04 10:58 51.47769 -0.41903 325 ft 142 kts 274°
2026-05-04 10:59 51.47764 -0.43495 127 ft 143 kts 272°
2026-05-04 10:59 51.47762 -0.44985 90 ft 117 kts 269°
2026-05-04 10:59 51.47759 -0.46025 88 ft 73 kts 269°
2026-05-04 10:59 51.47740 -0.46559 92 ft 33 kts 258°
2026-05-04 11:00 51.47669 -0.46821 91 ft 16 kts 244°
2026-05-04 11:01 51.47579 -0.47922 87 ft 25 kts 270°
2026-05-04 11:02 51.47579 -0.48212 88 ft 24 kts 269°
2026-05-04 11:02 51.47578 -0.48378 89 ft 13 kts 270°
2026-05-04 11:05 51.47459 -0.48758 89 ft 4 kts 184°
2026-05-04 11:06 51.47432 -0.48758 86 ft 3 kts 179°
2026-05-04 11:06 51.47416 -0.48758 86 ft 2 kts 179°
2026-05-04 11:06 51.47405 -0.48757 86 ft 1 kts 180°
2026-05-04 11:06 51.47400 -0.48757 86 ft 0 kts 179°